PST,Max TemperatureF,Mean TemperatureF,Min TemperatureF,Max Dew PointF,MeanDew PointF,Min DewpointF,Max Humidity, Mean Humidity, Min Humidity, Max Sea Level PressureIn, Mean Sea Level PressureIn, Min Sea Level PressureIn, Max VisibilityMiles, Mean VisibilityMiles, Min VisibilityMiles, Max Wind SpeedMPH, Mean Wind SpeedMPH, Max Gust SpeedMPH,PrecipitationIn, CloudCover, Events, WindDirDegrees
2013-1-1,50,41,32,37,33,29,89,59,29,30.28,30.25,30.22,10,10,8,21,5,26,0.00,2,,70
2013-1-2,53,41,28,36,32,27,92,73,54,30.25,30.20,30.15,10,10,8,14,3,18,0.00,0,,61
2013-1-3,54,41,27,40,34,27,100,80,59,30.28,30.23,30.18,10,8,5,15,4,18,0.00,0,,63
2013-1-4,55,44,32,38,35,30,96,71,46,30.30,30.24,30.19,10,7,4,14,4,18,0.00,0,,65
2013-1-5,53,43,33,45,41,32,100,86,71,30.27,30.15,30.07,10,4,1,12,4,15,0.16,5,Rain,71
2013-1-6,48,42,36,45,42,35,100,90,80,30.20,30.14,30.08,10,6,2,9,3,10,0.12,6,Rain,301
2013-1-7,56,45,34,45,38,33,100,81,61,30.27,30.20,30.17,10,4,0,12,2,14,0.00,1,Fog,90
2013-1-8,59,48,36,45,39,36,100,77,53,30.25,30.19,30.15,10,4,0,17,3,21,0.00,1,Fog,67
2013-1-9,53,44,35,48,40,35,100,85,70,30.16,30.07,29.99,10,4,0,24,6,30,T,5,Fog-Rain,260
2013-1-10,51,42,33,35,32,28,92,67,42,30.18,30.11,30.07,10,10,10,14,6,16,0.00,1,,261
2013-1-11,50,40,29,39,33,26,85,69,52,30.27,30.18,30.13,10,10,10,17,4,24,0.05,3,Rain,228
2013-1-12,49,40,30,34,29,22,100,69,37,30.26,30.20,30.15,10,8,0,9,2,14,0.00,1,Fog,72
2013-1-13,48,37,25,26,21,11,85,55,25,30.28,30.22,30.18,10,10,10,16,3,23,0.00,0,,86
2013-1-14,49,40,31,24,17,10,69,49,29,30.41,30.36,30.24,10,10,10,15,5,17,0.00,0,,89
2013-1-15,51,40,28,30,26,22,82,58,33,30.49,30.44,30.40,10,10,10,15,4,21,0.00,0,,63
2013-1-16,53,42,30,34,31,28,92,67,41,30.45,30.36,30.28,10,8,5,17,4,21,0.00,0,,84
2013-1-17,59,45,31,35,32,28,92,64,36,30.28,30.22,30.17,10,8,5,16,4,21,0.00,0,,60
2013-1-18,62,47,31,39,31,28,92,62,32,30.25,30.19,30.15,10,9,5,14,3,20,0.00,0,,63
2013-1-19,60,45,29,38,32,26,92,66,39,30.27,30.22,30.18,10,10,10,15,4,21,0.00,0,,65
2013-1-20,61,46,30,37,31,27,85,56,27,30.25,30.20,30.14,10,10,8,16,3,20,0.00,0,,66
2013-1-21,60,45,30,41,34,27,92,69,46,30.20,30.15,30.11,10,9,5,16,4,21,0.00,0,,66
2013-1-22,61,47,32,43,38,32,96,71,46,30.13,30.08,30.03,10,6,2,15,3,21,0.00,1,,65
2013-1-23,53,48,42,48,45,41,93,84,74,30.10,30.04,29.99,5,4,2,12,2,14,0.06,5,Rain,54
2013-1-24,54,51,48,52,49,46,100,92,83,30.20,30.14,30.08,10,5,1,12,3,14,0.30,8,Rain,101
2013-1-25,66,58,49,56,52,48,100,87,73,30.19,30.13,30.04,10,4,0,14,2,16,0.01,6,Fog-Rain,42
2013-1-26,58,52,45,50,46,39,100,76,51,30.07,30.03,29.99,10,4,0,20,7,23,0.01,3,Fog,239
2013-1-27,56,46,36,40,36,27,92,62,32,30.17,30.12,30.07,10,10,10,14,4,17,0.00,0,,255
2013-1-28,58,47,35,41,37,32,89,65,40,30.29,30.22,30.16,10,10,10,14,4,18,0.00,1,,254
2013-1-29,59,48,37,42,40,36,100,78,55,30.36,30.31,30.27,10,10,10,9,2,10,0.00,1,,196
2013-1-30,65,53,40,41,38,36,89,63,37,30.34,30.29,30.26,10,10,10,15,5,18,0.00,0,,76
2013-1-31,62,49,35,46,39,33,92,72,51,30.30,30.25,30.19,10,9,5,15,3,20,0.00,0,,60